Theta_e
331 331 330 329 329 329 331 331 331 330 329 330 330 330 329 330 330 331 332 330 329 328 329 329 328 328 328 328 327 327 328 328 328 328 328 328 325 322 323 324 323 324 324 324 325 324 325 325 325 324 321 320 316 312 312 307 305 311 315 315 316 313 310 311 311 308 303 298 295 296 296 296 296 295
331 331 330 329 329 329 329 330 330 329 328 330 331 330 330 329 329 330 331 330 328 327 328 328 328 328 327 328 327 327 328 327 328 328 327 327 325 322 323 324 324 324 324 324 324 324 325 325 325 323 322 319 315 312 312 306 303 309 313 314 315 312 309 309 308 303 297 296 296 296 296 296 296 296
331 331 331 330 329 329 329 329 330 328 329 331 331 330 330 329 329 328 328 329 328 327 328 327 327 328 327 327 327 327 327 326 327 327 327 327 325 322 322 323 324 324 324 325 324 324 324 325 324 323 321 319 317 316 316 309 303 308 313 314 312 309 307 307 306 301 297 297 297 296 296 297 296 296
332 332 332 331 330 330 329 329 330 329 330 331 331 330 330 329 329 328 327 328 327 327 327 327 327 327 327 327 327 327 327 326 326 327 327 326 325 322 323 324 324 324 324 325 324 324 325 324 324 322 320 319 317 316 315 309 303 307 313 313 310 307 305 303 303 301 298 297 298 297 297 297 297 297
332 332 332 331 331 330 330 330 331 330 330 331 329 329 329 328 327 327 326 326 326 326 327 326 326 326 327 327 327 327 326 325 325 326 326 325 325 324 324 325 324 324 324 324 324 324 324 323 322 320 320 319 317 314 312 307 302 305 310 309 306 304 302 300 301 300 298 298 298 298 298 298 298 298
331 331 331 331 330 330 330 330 330 329 329 328 327 328 328 328 327 327 326 326 326 325 325 325 326 326 326 327 327 326 325 323 324 325 325 325 325 324 325 324 324 324 324 325 324 323 322 320 319 319 319 317 314 312 308 303 301 304 306 305 302 301 301 300 301 300 299 299 299 298 299 299 299 299
330 329 330 330 330 330 330 329 329 328 328 328 327 327 328 328 327 327 326 326 326 324 323 324 325 326 326 326 326 326 324 322 324 324 324 324 324 324 324 324 324 324 324 324 322 319 318 317 316 316 315 311 309 307 303 300 301 302 303 302 301 301 301 301 301 300 300 300 300 299 299 299 299 299
329 329 329 329 329 330 329 329 329 329 329 329 328 327 328 328 327 327 326 326 326 324 323 324 326 326 326 326 326 325 323 322 323 323 323 323 323 323 324 323 323 323 322 321 320 319 319 318 313 311 309 304 302 302 299 299 301 300 301 301 301 301 301 301 301 301 301 300 300 300 300 300 300 300
330 330 330 330 330 329 328 328 328 328 330 330 329 328 328 328 327 327 326 325 325 325 323 323 324 325 324 325 325 324 323 323 323 323 323 322 321 322 323 323 323 323 322 321 321 321 321 316 309 306 305 301 300 300 298 299 300 300 300 301 301 301 301 301 301 301 301 301 301 301 302 302 302 301
331 331 331 331 330 329 328 329 328 328 330 330 330 329 328 327 328 327 326 325 325 324 324 322 323 323 323 324 324 323 322 323 323 323 323 322 322 321 322 322 323 323 322 321 321 320 317 311 306 306 305 302 301 301 300 300 300 300 300 301 301 302 302 302 302 302 302 303 303 303 303 303 303 302
331 331 331 331 331 330 329 329 328 328 329 329 329 330 328 327 327 326 325 325 324 324 323 322 321 321 321 322 323 323 322 322 322 322 322 321 321 321 319 319 320 322 322 321 318 316 314 310 308 309 308 305 304 303 303 302 301 301 302 302 303 303 303 303 303 303 304 304 304 304 304 303 303 302
329 330 330 330 330 330 330 330 329 329 329 329 328 329 328 327 327 326 325 325 324 324 323 321 320 319 319 320 321 321 322 322 321 321 321 320 321 321 316 312 313 315 317 317 314 312 313 311 309 310 310 309 309 308 306 305 303 303 303 303 303 303 304 304 305 306 307 308 308 308 307 306 305 303
328 329 329 329 328 329 329 330 330 330 329 328 327 328 328 327 326 326 325 325 324 324 323 321 319 317 317 318 317 318 320 321 321 321 320 320 321 318 313 310 311 309 310 312 311 310 311 310 309 310 310 310 311 310 308 306 305 304 303 303 304 305 307 308 310 310 310 310 310 310 310 309 308 307
327 328 328 327 326 327 327 328 328 329 329 328 327 327 327 327 327 326 325 325 324 324 322 321 319 317 315 316 316 317 319 321 320 320 319 319 318 314 311 312 314 312 308 308 310 310 310 309 309 310 310 311 311 310 309 307 305 303 304 306 308 309 309 309 308 307 307 308 308 308 308 309 308 308
326 326 327 326 326 326 327 326 327 328 328 327 326 326 326 326 326 325 325 325 324 323 322 320 319 317 316 315 315 317 318 319 318 318 319 318 314 311 311 312 313 313 310 308 309 311 311 311 310 311 311 311 310 310 308 306 304 305 307 309 309 307 306 304 303 303 303 304 305 305 305 306 307 306
326 326 326 326 326 326 326 326 327 327 327 326 325 325 325 325 325 325 325 325 324 323 322 320 319 318 316 315 314 316 318 318 317 315 317 316 312 310 311 311 311 313 311 307 308 310 310 310 310 310 310 310 310 309 307 305 306 308 308 307 305 304 302 301 301 301 301 302 302 302 303 304 305 305
324 324 325 325 326 326 327 326 326 327 327 326 325 324 325 325 324 324 324 325 324 323 321 320 319 318 316 315 315 316 318 318 315 311 312 312 310 309 310 310 311 313 311 307 307 308 308 309 308 308 308 308 308 307 306 306 307 307 305 303 302 301 300 300 299 299 300 301 301 301 302 303 304 304
323 323 323 323 324 325 325 325 325 326 327 325 323 323 324 324 324 324 324 324 324 323 322 321 320 319 316 315 316 316 316 316 314 310 310 310 309 309 309 311 312 312 310 308 308 307 307 307 307 306 306 306 306 305 305 305 305 303 302 301 300 299 299 299 299 299 300 300 301 302 302 303 303 303
320 321 320 320 320 321 322 322 323 324 324 323 322 322 322 323 324 324 322 321 322 322 321 320 319 319 318 316 316 314 313 314 314 311 310 309 309 310 312 314 314 311 308 308 308 308 305 306 306 305 305 304 304 304 303 302 302 301 300 299 299 298 298 298 299 300 300 300 301 301 301 301 301 301
316 318 319 318 319 319 319 319 320 320 321 320 319 319 319 320 320 320 319 319 320 320 319 319 319 320 319 319 318 316 314 314 313 311 310 310 311 313 315 315 315 312 309 309 309 308 304 305 306 304 303 303 302 301 301 300 300 300 299 299 298 298 298 298 298 299 299 299 299 299 299 299 299 298
312 315 317 317 318 317 317 317 317 318 318 318 315 314 313 314 314 313 313 315 316 317 318 319 319 319 319 319 320 319 318 317 315 313 313 313 314 316 316 314 314 314 312 312 312 310 305 305 305 302 301 301 301 300 300 300 300 299 299 299 298 298 298 298 298 298 298 298 298 298 298 297 297 297
310 312 314 316 315 314 314 315 316 315 315 314 312 310 310 310 309 308 309 311 312 313 315 317 317 317 318 319 320 320 320 320 318 317 316 315 316 316 316 314 313 312 313 313 315 311 305 303 304 302 300 300 300 300 300 300 300 299 299 299 298 298 297 298 298 298 298 298 298 298 298 297 297 297
308 310 311 312 313 314 314 314 314 314 314 312 311 311 310 309 307 306 307 309 310 311 312 313 314 314 314 316 317 318 319 319 319 319 318 317 317 317 316 313 310 309 310 313 315 311 305 302 303 302 301 300 300 300 300 300 300 299 299 299 298 298 297 298 298 298 297 297 298 298 298 298 297 297
306 307 308 309 312 314 314 313 314 314 314 312 311 310 308 307 306 305 305 305 305 305 306 306 307 308 309 311 312 313 314 315 315 317 318 318 318 317 314 311 310 309 308 310 313 311 305 302 302 302 301 301 300 300 300 300 300 299 299 299 298 297 297 297 298 297 297 296 296 297 297 297 297 297
302 303 305 307 309 311 312 312 312 312 312 311 309 308 307 306 306 305 304 304 303 303 302 302 303 303 305 306 306 307 308 309 310 312 314 315 317 316 312 309 309 307 306 308 312 311 306 303 302 302 301 301 300 300 300 300 300 299 299 299 298 297 296 297 298 298 297 296 296 296 297 297 297 297
301 302 303 304 306 309 310 310 311 310 310 310 308 307 307 306 306 306 305 304 303 303 302 302 302 302 303 304 304 304 305 305 307 308 310 312 313 313 311 309 309 307 306 309 311 311 307 304 303 302 302 301 300 300 300 300 300 299 299 298 297 296 296 296 297 297 297 297 296 295 296 297 297 296
301 301 302 303 304 306 307 307 307 307 307 308 307 307 307 306 306 306 305 304 304 303 303 303 303 302 301 302 303 303 303 304 305 305 306 306 308 308 307 307 307 306 306 308 310 310 308 305 303 303 302 301 300 300 299 300 300 300 299 298 297 296 296 296 296 297 297 297 296 295 296 296 296 296
300 300 301 302 303 304 304 304 304 304 304 305 305 305 305 305 305 304 303 302 302 303 303 303 303 302 301 300 301 302 302 303 303 303 303 303 303 303 303 304 304 304 305 306 307 309 308 306 304 303 302 301 300 300 300 300 299 299 299 298 298 297 296 296 296 296 296 297 297 296 296 296 296 296
299 300 300 300 301 302 302 302 302 302 302 302 303 303 303 302 302 302 301 301 301 301 301 301 302 302 301 301 301 301 302 302 301 301 301 301 301 301 301 302 302 302 303 303 304 306 307 306 305 304 302 301 301 300 300 299 299 299 298 298 298 297 296 296 295 295 296 296 297 297 297 296 295 295
298 298 299 299 300 300 300 300 300 300 300 300 301 301 301 301 301 301 300 300 300 300 300 300 300 301 301 300 300 300 301 301 300 299 299 300 300 300 300 300 300 300 301 302 302 303 304 306 306 305 303 301 300 300 299 299 298 298 298 298 297 297 297 296 295 295 295 295 296 297 297 296 295 294
297 297 297 297 298 298 298 298 298 298 299 299 299 299 300 300 300 300 300 300 300 300 300 300 300 300 300 300 300 300 300 300 300 300 300 300 300 300 299 299 299 300 300 300 301 301 302 304 305 304 302 301 300 299 299 298 298 297 297 297 296 296 296 296 295 295 295 295 296 298 298 297 295 294
297 296 297 297 297 297 297 297 297 297 298 298 298 298 298 298 299 299 300 300 300 300 301 300 300 300 300 301 301 301 300 300 300 300 300 300 300 300 299 299 299 300 300 300 300 301 301 302 303 302 301 300 299 299 298 297 296 296 295 294 294 294 294 295 295 295 295 294 295 296 297 296 295 294
296 297 297 297 297 297 297 297 297 297 297 297 297 297 297 297 297 298 298 298 298 299 300 300 300 300 300 301 301 301 300 300 300 300 301 301 301 300 299 299 299 299 299 299 299 300 300 301 301 300 300 299 299 298 297 295 293 293 293 293 293 293 293 294 294 294 293 293 293 294 295 295 295 294
296 297 297 296 296 296 296 296 296 296 297 297 297 297 297 297 297 297 297 297 297 297 298 299 299 300 300 300 300 300 299 299 299 299 300 301 301 300 299 299 299 298 298 298 298 299 299 299 299 299 299 298 297 296 296 294 292 291 291 291 292 292 293 293 293 293 293 293 293 293 294 294 294 293
296 296 296 296 296 296 296 296 296 296 296 296 296 296 297 296 296 296 296 296 297 297 297 297 298 298 298 299 299 299 299 299 299 299 299 299 300 300 299 298 298 298 298 297 297 297 298 298 298 296 295 295 294 293 293 293 292 290 290 291 292 292 292 292 292 292 292 292 292 292 292 293 292 292
295 295 295 295 295 295 295 295 295 295 294 295 295 295 296 296 296 296 296 296 296 297 297 297 297 297 297 298 298 298 298 298 298 298 298 298 299 300 300 299 298 299 298 297 296 296 296 297 297 295 293 293 293 293 292 292 292 291 290 291 291 292 292 291 291 291 291 290 290 290 290 290 290 291
295 295 295 295 295 295 294 294 294 294 294 294 294 295 295 295 295 295 295 295 296 296 296 296 297 297 297 297 297 297 298 298 298 297 297 298 298 298 299 299 298 298 299 298 297 296 296 296 297 296 294 292 294 294 292 291 291 291 290 290 291 291 291 291 291 290 290 290 289 289 289 289 289 289
295 295 295 294 294 294 294 294 294 294 294 294 294 294 294 294 294 295 295 295 295 295 296 296 296 296 296 296 297 297 297 298 297 297 297 297 297 297 297 298 297 297 298 298 298 298 298 297 296 295 293 293 293 293 292 291 291 290 289 289 290 291 291 291 290 290 290 289 289 289 289 288 288 288
294 294 294 294 294 294 293 293 294 294 294 294 294 294 294 294 294 294 294 294 294 294 295 295 295 296 295 295 296 296 296 297 297 296 296 296 296 296 295 295 295 295 296 297 298 299 298 298 296 294 293 294 294 293 292 291 291 290 289 289 289 290 290 290 290 290 290 289 289 289 289 288 288 288
293 293 293 293 293 293 292 292 293 294 294 293 294 294 294 294 294 294 294 294 294 293 293 294 295 295 295 295 295 295 295 296 296 295 295 295 295 295 294 294 294 294 295 295 296 297 297 298 297 296 296 295 294 293 292 291 290 289 289 289 289 290 290 290 290 290 290 290 289 289 289 289 288 288
293 292 292 292 293 292 292 292 293 293 293 293 293 293 293 293 293 293 294 294 294 293 293 293 293 294 294 295 294 294 294 295 295 295 295 295 295 295 295 294 294 293 293 293 293 293 294 295 296 296 295 294 293 292 291 290 290 289 289 289 290 290 290 290 290 290 289 290 289 289 289 289 288 288
293 292 291 292 292 292 292 292 292 292 292 292 292 293 293 293 293 293 293 293 294 294 293 293 292 293 293 293 293 293 293 293 294 294 294 294 294 295 295 294 294 293 292 292 292 292 292 293 293 293 293 293 292 291 290 290 290 290 290 290 290 290 290 290 290 290 290 290 289 289 289 289 289 288
292 292 291 291 292 292 292 291 292 292 292 292 292 292 293 293 293 293 293 293 293 294 293 293 293 292 292 292 292 292 292 292 292 292 292 293 293 293 294 294 293 292 292 292 291 292 292 292 292 292 293 293 293 292 291 290 290 290 290 290 290 290 290 290 290 290 290 290 290 289 289 289 289 288
292 291 291 291 291 291 291 290 290 291 292 292 292 292 292 293 293 293 293 293 293 293 293 293 293 293 292 292 292 292 292 292 292 291 291 291 292 292 292 292 293 292 292 292 291 291 291 291 291 292 292 292 293 293 292 291 290 290 290 290 290 290 290 289 289 289 289 290 290 290 289 289 289 288
292 291 291 290 290 290 289 289 289 290 291 291 292 292 292 293 293 292 292 293 293 293 293 293 293 293 293 293 293 292 292 292 292 291 291 291 291 291 291 291 291 292 292 292 291 291 291 291 291 291 291 291 292 292 293 292 291 291 290 290 290 290 289 289 289 289 289 289 290 290 290 289 289 289
Wind_Speed
24 23 23 23 25 26 26 29 29 27 26 25 25 27 26 18 9 4 5 5 8 16 20 20 21 23 22 22 21 20 19 20 21 21 23 24 24 24 23 21 20 19 18 17 16 14 13 15 17 15 11 9 9 10 7 7 12 16 15 14 14 13 12 12 12 11 9 7 5 5 5 5 5 5
23 23 22 21 24 25 25 27 28 26 24 24 24 26 28 26 17 10 7 7 11 17 20 21 23 24 24 24 23 21 19 19 20 21 22 24 25 24 23 22 20 19 18 17 17 16 15 16 18 16 12 10 10 9 7 6 12 16 15 14 14 13 12 12 12 10 7 5 5 5 5 4 4 5
23 23 22 21 23 25 25 25 26 26 23 22 24 25 28 29 26 21 12 6 11 20 21 20 23 26 26 25 24 23 20 18 19 21 22 23 24 23 22 21 20 20 19 18 18 17 16 18 19 15 12 11 10 10 8 7 11 15 14 14 13 11 11 11 10 7 5 4 5 4 4 4 4 4
23 23 22 22 23 23 23 24 24 24 23 23 23 24 27 27 25 25 19 8 8 19 23 22 22 25 27 26 26 25 21 18 18 20 21 22 23 23 22 21 21 21 20 20 18 17 17 19 18 15 13 12 11 11 9 7 10 14 14 13 11 10 10 10 9 7 5 4 4 4 4 4 3 4
24 24 23 22 22 21 21 22 22 21 23 23 21 20 24 22 17 18 17 10 7 13 21 23 22 24 27 27 27 25 20 18 18 19 20 21 21 22 21 20 21 21 20 20 19 18 19 19 16 14 13 13 12 11 9 8 11 14 13 11 10 10 10 9 8 7 5 4 4 4 4 3 3 3
23 23 23 21 20 20 21 22 21 20 21 21 20 21 24 23 17 16 16 13 10 10 17 23 23 25 28 27 26 24 19 18 20 21 20 20 20 19 19 20 20 19 19 19 19 19 18 16 15 15 14 13 12 11 9 10 12 13 12 11 11 10 10 9 8 7 6 5 4 4 4 3 3 2
21 20 20 20 19 18 20 20 20 21 23 23 24 24 25 25 22 19 17 16 14 12 15 22 25 27 28 27 26 23 19 19 21 22 21 20 19 18 18 19 20 19 20 20 20 18 16 14 14 14 14 13 12 11 10 12 13 13 12 11 11 11 10 9 8 7 6 6 5 4 4 3 3 3
18 18 18 19 20 19 20 18 16 19 23 25 24 22 23 23 22 19 16 17 18 16 16 20 25 29 29 26 26 24 21 22 23 22 21 19 18 19 19 19 20 20 21 20 19 17 15 14 14 14 13 12 12 11 12 13 13 12 12 12 11 11 10 9 9 8 7 7 6 5 5 4 5 5
15 17 17 18 18 18 20 20 18 18 21 22 21 20 22 21 21 22 19 17 19 18 17 18 20 24 25 24 25 26 24 24 22 21 21 20 19 19 20 20 20 21 20 20 18 16 14 14 14 14 13 12 11 11 12 13 13 12 12 12 12 11 11 10 10 9 8 8 7 7 8 8 8 8
15 17 17 16 16 17 20 23 22 21 21 21 20 21 23 22 22 24 23 22 23 20 17 18 19 20 22 22 24 27 28 27 25 22 22 21 21 21 21 22 22 21 20 19 18 16 15 14 14 13 13 12 12 12 12 13 13 12 13 12 12 11 11 10 9 9 9 9 9 10 11 11 11 11
16 16 16 16 17 18 20 20 22 23 23 22 22 22 23 23 23 25 26 26 26 22 19 21 23 24 24 24 25 27 28 27 25 25 24 22 22 22 22 23 23 22 21 19 18 17 16 15 15 14 13 12 12 12 12 13 12 12 12 12 11 10 9 9 9 9 10 10 11 12 13 14 14 14
16 15 15 16 17 17 18 18 21 23 24 24 23 22 22 22 22 23 24 24 24 22 21 23 24 24 25 25 24 25 26 23 21 24 26 26 25 24 22 22 22 22 22 21 19 19 18 17 17 16 15 14 13 12 12 12 13 12 12 10 9 8 8 8 9 9 10 10 11 12 13 13 14 15
12 12 13 14 13 14 16 19 20 21 23 24 24 24 24 25 24 22 22 23 24 23 22 22 21 21 23 25 24 24 27 28 25 25 26 26 26 25 23 22 22 21 22 23 22 21 20 19 18 18 17 16 15 14 13 13 13 11 10 9 8 7 7 7 7 8 9 10 10 11 11 11 11 12
9 10 11 11 9 9 13 16 17 17 18 20 23 24 27 29 29 27 26 26 28 27 24 24 24 21 21 26 28 29 31 31 28 27 26 25 25 23 20 19 20 22 23 24 24 22 21 20 19 19 18 17 16 15 14 12 11 10 9 8 7 6 5 5 5 6 8 9 10 10 10 10 9 9
7 8 8 7 5 6 9 12 14 14 14 17 20 23 25 26 27 29 29 28 30 29 26 25 26 24 22 26 29 30 32 31 27 28 29 26 24 23 18 14 15 20 24 25 23 21 19 19 20 19 18 18 17 15 13 11 10 10 9 8 7 5 4 3 4 5 7 7 8 8 8 8 8 8
3 5 6 6 5 5 8 12 14 13 13 16 18 20 22 21 21 24 26 26 28 28 26 25 25 24 24 26 29 30 32 32 29 28 29 27 26 26 23 19 17 19 24 24 21 18 17 17 18 18 17 17 15 13 11 11 11 11 10 8 6 5 3 3 3 4 6 6 7 7 6 6 6 6
3 2 2 4 4 5 8 12 14 13 14 15 15 16 18 18 17 17 17 21 25 26 24 25 26 24 23 26 31 32 32 33 31 27 27 28 28 28 28 25 21 20 24 26 22 17 15 16 17 17 15 13 13 13 13 13 13 11 10 7 5 4 3 1 1 2 3 4 4 4 3 3 3 3
7 6 4 3 4 4 7 10 13 14 14 14 12 12 13 14 14 11 7 11 19 21 20 23 24 21 22 26 31 32 31 33 32 30 30 30 28 28 26 23 21 20 24 28 23 15 13 16 16 16 16 16 17 18 16 14 13 10 9 8 6 5 4 4 3 2 2 2 2 2 2 3 3 4
10 11 11 11 11 9 8 8 10 12 13 13 12 13 14 13 13 12 9 7 9 12 13 15 16 14 15 21 26 28 29 30 30 30 31 31 28 25 21 18 19 21 24 28 22 14 14 18 19 20 22 23 21 20 17 14 13 12 10 10 9 8 7 7 6 6 6 5 5 5 6 7 8 10
15 13 15 15 14 12 11 9 10 13 14 16 17 18 18 18 16 15 16 16 15 17 18 17 15 15 14 14 15 19 23 25 27 27 27 26 26 23 19 16 18 22 23 25 23 17 18 21 24 26 25 24 24 22 20 18 16 15 14 12 12 11 11 10 10 10 10 9 10 10 11 12 14 14
22 18 17 17 16 15 14 13 13 15 18 21 24 26 27 27 26 24 22 21 19 19 20 19 16 16 17 16 15 14 15 16 21 25 25 26 28 26 19 14 16 21 21 21 21 21 22 23 27 29 25 25 26 23 21 21 19 17 17 15 14 14 13 13 12 12 12 12 12 13 14 15 16 16
31 25 21 21 21 20 19 18 18 20 23 26 29 30 31 31 28 24 23 24 24 22 22 20 17 17 16 16 14 14 17 18 19 22 26 28 29 25 19 15 16 16 16 17 18 20 25 27 31 32 25 21 23 24 22 22 21 20 19 17 16 15 14 14 13 13 14 14 13 13 13 13 14 15
37 33 30 28 26 24 23 23 24 26 28 29 29 29 30 29 24 21 21 24 25 24 23 21 18 18 17 15 14 12 13 15 15 15 19 25 26 20 18 20 18 10 10 17 20 21 27 30 33 33 24 14 15 21 23 22 21 20 19 18 16 15 14 14 14 15 15 15 14 13 11 11 11 12
40 38 36 34 30 28 27 27 28 29 29 29 28 29 30 28 25 24 26 27 27 27 27 25 22 22 19 17 16 13 10 10 8 8 13 19 20 18 20 23 19 9 10 20 25 24 28 31 30 29 23 13 13 20 22 22 21 20 19 17 15 14 13 14 14 15 16 15 14 13 11 9 9 9
38 38 38 36 33 30 30 30 30 29 28 29 30 30 30 28 26 27 28 28 28 28 28 27 26 24 22 20 18 16 15 13 10 6 6 9 12 14 17 17 13 9 12 19 24 25 28 31 28 23 18 16 19 24 23 20 21 20 18 16 14 12 12 13 14 14 14 14 14 13 12 10 9 8
37 37 36 36 34 32 32 31 31 30 29 29 30 28 27 26 25 27 28 27 28 28 28 28 27 26 25 25 23 22 21 18 16 14 12 9 7 8 10 9 8 11 14 17 22 24 27 32 31 25 21 21 22 24 22 20 20 19 17 15 13 11 12 12 13 13 12 12 13 13 12 12 10 9
33 32 32 32 32 33 33 32 32 32 31 30 28 26 24 24 23 24 25 26 27 29 29 29 28 27 26 25 24 24 23 21 19 18 17 15 13 13 11 9 9 11 12 14 18 22 26 31 31 26 28 29 25 21 19 18 19 19 17 15 13 11 11 12 13 13 11 10 11 11 12 12 11 11
32 30 29 28 28 29 30 31 31 32 32 31 29 27 25 25 24 24 25 26 27 28 28 27 26 24 23 23 21 19 18 18 19 19 19 18 17 17 16 15 13 12 9 9 11 14 21 27 27 24 28 33 29 22 19 19 20 21 19 16 14 11 11 11 10 10 10 10 9 10 11 11 11 11
32 31 29 28 28 28 28 28 28 29 28 27 26 26 26 26 26 26 26 26 27 27 26 25 23 21 20 19 18 16 14 16 18 18 17 18 17 16 16 16 15 13 10 8 7 6 11 19 23 23 26 30 29 25 23 22 22 21 19 17 15 12 11 10 8 7 8 9 8 9 10 11 11 11
32 32 31 31 31 31 30 30 30 29 27 25 25 25 25 25 25 24 24 24 24 23 21 20 19 18 16 14 12 12 12 12 13 12 11 11 11 10 9 10 11 10 9 7 5 5 7 13 21 25 26 27 26 25 25 23 21 19 16 15 13 11 10 8 6 7 10 9 8 10 11 11 11 11
33 34 33 33 32 32 31 31 30 30 29 28 27 26 25 25 25 23 23 22 22 19 15 13 11 11 11 10 9 9 9 8 7 7 7 7 6 5 3 4 7 7 7 8 8 9 11 16 22 26 27 27 24 22 21 20 18 16 14 13 11 10 9 8 7 9 13 12 11 11 12 11 10 9
34 34 34 34 34 33 33 32 30 30 29 28 27 26 25 24 23 23 23 23 22 19 15 11 8 7 7 8 8 8 8 8 6 4 3 4 5 6 7 10 12 13 12 13 13 13 15 20 24 26 27 26 24 21 19 18 17 16 15 14 13 11 11 11 11 13 16 15 14 14 12 10 9 8
33 34 34 35 34 34 33 33 31 29 28 26 26 24 23 22 22 22 22 22 21 19 16 14 12 10 9 8 6 6 8 10 9 5 0 2 5 7 9 12 14 15 15 15 15 16 18 21 23 23 22 21 20 19 19 20 18 16 16 15 13 13 12 13 15 16 15 16 17 16 14 11 9 7
33 33 33 32 32 31 31 31 30 28 27 25 24 23 22 21 21 21 21 20 19 17 16 14 13 12 11 10 9 8 9 10 10 8 4 1 5 7 9 12 14 15 16 16 16 16 17 19 20 21 20 20 19 18 20 21 19 16 14 12 12 14 14 14 15 15 14 14 17 16 14 11 8 6
32 30 30 29 28 28 28 28 27 26 25 24 23 22 21 21 20 20 20 19 17 15 15 13 11 11 10 9 9 10 10 10 10 7 5 4 3 7 10 11 12 12 15 17 18 18 18 19 22 24 22 21 20 17 15 16 16 15 14 13 12 14 16 15 14 15 15 15 15 15 13 10 8 6
30 28 28 26 25 25 26 26 25 24 24 23 21 20 20 20 19 19 19 17 15 14 15 14 12 12 11 10 8 8 8 8 9 7 5 4 4 4 10 11 9 9 12 16 18 20 20 21 23 24 22 18 14 11 9 11 11 10 11 13 13 14 15 16 14 14 14 13 12 13 13 11 8 6
28 27 27 26 25 24 24 23 22 22 22 22 22 21 20 19 18 17 16 15 14 13 13 13 13 13 12 11 8 7 6 6 8 8 8 6 3 2 8 9 8 8 11 14 17 18 18 18 20 23 21 14 7 4 6 10 11 8 7 10 14 15 14 15 15 13 12 11 9 10 11 10 9 7
26 25 26 25 24 23 21 20 20 20 20 20 21 21 21 19 18 17 16 16 16 14 12 11 11 11 12 11 9 6 5 5 6 7 9 8 6 4 6 7 7 8 11 14 17 17 16 16 18 21 22 16 7 5 8 11 10 8 6 7 12 15 14 13 14 13 11 10 9 9 9 9 9 8
24 23 23 22 21 21 20 18 18 18 18 18 19 19 20 19 18 18 17 18 19 17 14 12 10 9 10 11 8 7 7 8 7 8 9 10 9 8 8 8 9 10 11 14 15 15 15 16 15 16 18 17 14 15 16 14 12 10 9 8 11 13 13 13 13 11 9 9 8 8 7 8 7 7
23 21 20 19 19 20 19 18 17 16 16 17 17 17 18 19 18 18 18 18 19 20 18 15 11 9 8 7 6 8 10 10 9 8 8 9 10 10 10 10 11 12 12 12 11 10 10 12 13 14 14 13 14 17 18 16 14 12 11 11 11 11 11 11 10 9 7 7 6 6 6 6 6 5
20 19 18 17 17 17 18 17 16 15 15 15 16 16 16 17 18 17 17 16 17 19 21 19 14 11 8 7 7 8 9 9 8 8 7 7 7 9 10 10 9 10 11 11 9 8 7 6 8 11 12 14 17 19 17 15 14 13 12 11 10 8 7 7 6 6 6 6 6 6 6 5 5 4
17 18 17 15 14 15 16 15 13 13 14 13 13 14 14 15 16 16 16 15 15 16 19 20 18 15 13 11 11 10 10 9 9 8 7 6 6 9 11 11 9 9 10 10 10 10 9 7 8 10 12 16 20 19 17 16 16 14 13 11 9 7 6 5 5 5 5 6 6 7 6 6 5 4
16 17 16 14 13 14 15 13 12 11 12 11 12 12 12 13 14 15 15 15 14 14 15 17 17 17 17 15 14 13 12 11 10 9 8 8 8 9 10 10 10 10 11 12 12 10 8 9 9 9 10 14 17 18 18 19 18 16 14 12 9 8 8 6 5 5 5 6 7 7 6 5 5 4
14 15 15 14 13 13 14 14 13 12 10 10 10 11 11 11 13 14 14 13 13 13 13 13 14 14 14 14 14 14 13 12 10 9 8 9 9 8 6 7 8 11 12 12 11 10 9 10 11 10 10 12 14 15 17 19 17 15 13 11 9 9 8 7 6 5 4 5 8 8 7 5 4 3
13 13 13 13 12 12 13 13 14 14 13 10 9 10 10 10 11 11 12 13 12 12 12 12 12 12 11 10 10 11 11 10 9 9 8 9 9 8 6 5 5 6 8 8 8 9 10 11 10 9 9 10 12 14 16 17 16 13 11 9 9 9 7 6 5 4 4 6 8 8 8 7 5 2
Wind_Direction
233 231 231 232 233 236 234 226 222 219 211 205 202 195 187 179 165 165 184 186 196 200 200 199 201 205 206 204 203 205 204 204 207 209 208 206 205 205 205 204 206 208 210 210 206 205 203 191 186 188 195 203 201 196 209 223 199 185 180 181 189 194 183 171 169 164 157 153 149 144 139 135 135 135
228 228 229 231 234 235 236 233 227 221 214 208 206 204 198 190 179 172 180 193 194 193 196 198 197 198 204 206 203 202 204 205 210 211 209 207 206 205 206 207 209 210 211 212 207 204 202 194 190 193 200 203 199 203 219 222 201 192 186 187 197 197 183 176 175 167 156 150 148 147 142 136 132 130
224 224 225 225 228 231 235 238 233 225 218 213 209 207 204 198 192 184 175 183 199 192 190 195 197 196 200 206 204 201 202 205 210 211 208 206 205 206 208 209 210 211 213 213 209 205 200 194 193 194 199 201 203 212 226 225 202 193 191 195 199 195 186 182 177 168 162 157 153 151 145 139 132 128
220 219 221 220 224 229 231 236 236 227 222 219 213 211 209 203 198 191 181 170 188 192 192 192 194 197 200 204 202 197 197 202 208 209 206 204 204 208 211 211 211 214 215 213 209 204 196 192 193 196 200 204 209 217 225 221 201 194 194 199 199 194 188 183 179 181 180 168 160 154 147 140 135 128
219 218 219 220 222 224 225 230 230 223 224 225 216 213 209 200 195 192 184 169 158 180 191 189 192 199 198 198 198 194 192 196 202 204 203 203 205 207 209 210 212 213 211 207 202 195 190 189 193 199 203 209 216 220 221 210 199 196 195 198 196 192 187 183 185 190 187 179 173 166 156 149 141 133
219 219 220 221 223 224 226 229 229 223 223 221 212 211 208 197 192 192 184 175 157 159 181 184 186 193 193 192 193 194 195 194 195 198 198 199 201 203 205 206 204 200 197 194 190 187 187 190 197 203 208 215 218 220 217 203 196 194 194 196 194 190 188 189 195 197 194 194 193 186 177 172 171 165
219 218 220 220 220 224 225 221 221 219 216 213 208 208 207 201 197 192 184 179 169 159 172 178 179 184 188 192 193 196 200 192 187 189 191 194 196 197 198 196 189 184 185 186 185 186 190 197 204 207 210 215 217 215 208 199 193 190 191 195 193 192 194 197 204 211 212 212 213 211 206 202 204 211
219 219 224 223 217 219 220 213 209 212 215 212 204 204 207 203 194 188 185 184 179 174 175 179 182 183 185 192 193 192 194 189 184 185 186 190 193 191 191 189 185 184 185 188 190 194 201 206 208 208 208 209 209 206 199 195 192 188 190 195 195 196 201 203 209 217 224 230 233 234 236 234 233 234
226 227 229 228 221 219 226 226 217 213 217 214 203 203 207 202 192 189 190 189 187 185 179 177 183 184 182 187 191 190 188 184 184 189 190 189 189 188 191 192 192 191 193 196 200 205 210 211 208 205 203 202 201 198 194 193 193 190 190 196 198 201 206 210 215 221 229 240 247 251 252 250 247 243
221 227 228 231 227 219 223 227 219 211 216 217 212 207 200 194 193 192 190 192 195 192 184 179 183 185 183 183 185 190 191 186 184 189 192 192 192 192 193 195 198 201 202 204 208 210 209 207 205 202 199 198 196 194 192 192 193 192 194 198 202 207 212 218 224 231 238 247 253 257 260 261 260 256
216 222 224 229 230 220 217 222 218 213 212 212 212 210 198 190 190 187 184 187 190 187 183 183 183 184 187 188 186 189 193 188 185 186 186 189 197 200 199 199 200 204 209 210 211 209 205 202 201 201 199 200 199 196 195 195 196 197 199 203 207 212 221 230 240 249 255 259 261 262 264 265 265 263
225 228 227 229 228 219 214 218 218 216 213 206 202 202 198 193 190 186 183 182 183 183 184 185 184 180 182 189 189 187 186 184 187 191 188 187 193 200 203 203 201 202 206 210 209 206 203 200 199 199 200 203 204 201 199 198 201 203 205 208 212 220 231 241 249 255 258 261 263 263 262 261 261 260
238 240 239 240 235 222 219 222 222 221 217 208 198 194 195 195 190 187 185 181 179 181 183 184 183 177 177 183 183 181 184 188 193 197 195 192 193 196 200 204 206 204 202 204 206 204 202 201 200 201 202 204 206 207 205 205 206 207 207 210 214 220 228 235 244 254 260 262 263 263 262 259 257 255
259 255 249 248 241 229 229 228 225 224 221 216 212 207 200 194 189 185 184 183 181 182 183 183 182 178 180 184 183 183 190 195 195 194 194 194 192 192 195 201 209 212 206 202 201 202 203 203 203 203 206 208 209 211 211 209 207 205 204 204 202 203 214 232 249 261 266 268 266 264 262 259 253 249
260 262 264 265 254 240 233 225 223 227 225 221 223 219 209 201 196 191 184 182 183 183 183 183 182 182 187 190 189 188 190 194 196 194 195 194 189 186 187 192 205 214 211 201 193 192 199 205 207 205 207 211 212 212 211 206 201 197 190 184 181 183 201 230 252 263 263 265 266 262 259 255 248 241
279 282 284 277 261 238 224 221 221 220 216 215 214 211 209 208 207 200 191 189 188 184 182 183 182 185 192 193 192 192 192 194 197 196 196 196 192 190 192 195 198 206 208 198 183 177 187 199 205 204 204 207 207 203 199 190 180 177 172 168 172 180 193 217 241 257 257 256 256 255 254 250 243 236
48 15 306 274 256 234 222 221 217 207 204 207 200 193 193 196 198 198 198 203 200 188 183 183 182 188 198 195 193 198 199 196 194 193 194 198 198 197 199 203 202 200 201 192 173 161 175 189 194 193 190 191 188 176 170 168 166 165 164 160 161 159 148 152 206 239 248 247 244 241 241 234 226 214
80 82 83 93 112 157 197 206 204 199 199 197 184 172 173 178 183 183 185 211 209 199 194 191 186 192 204 200 196 200 202 199 197 195 196 199 199 197 200 205 201 194 195 193 177 153 163 181 179 171 164 160 158 155 153 156 156 152 145 136 123 113 106 101 108 127 146 167 174 158 147 138 130 122
81 95 100 100 105 119 139 162 171 175 178 172 158 152 151 154 165 160 126 122 164 171 174 177 169 167 186 194 194 197 200 201 202 202 203 203 199 191 188 186 184 180 187 195 186 151 151 171 162 147 148 149 146 144 141 139 138 129 119 113 106 99 96 97 101 105 108 108 103 103 106 106 105 103
71 90 100 95 93 102 111 121 134 143 146 139 129 124 123 123 124 120 109 109 120 124 128 135 132 123 130 147 167 186 197 203 206 205 201 195 186 173 160 155 165 171 178 193 192 159 146 161 153 140 144 146 139 137 135 130 126 120 112 105 100 97 94 94 99 101 101 99 96 97 98 98 98 99
64 77 90 89 83 88 97 102 110 121 125 120 111 103 100 99 97 92 94 103 109 115 123 131 134 129 131 135 140 153 169 187 199 194 179 173 172 163 150 147 161 169 173 189 194 165 147 155 150 139 141 143 137 135 135 130 123 117 113 107 101 96 91 91 95 97 96 95 95 97 99 99 99 99
63 69 78 82 83 85 91 97 101 107 109 105 100 95 92 90 85 82 87 95 96 99 107 117 125 129 137 147 146 145 148 154 171 177 170 171 171 161 153 154 158 164 174 187 188 162 147 153 150 139 136 139 140 140 137 132 127 122 118 114 105 98 92 90 94 96 97 98 98 98 98 97 98 100
64 67 71 76 82 86 90 94 98 101 101 97 93 94 92 88 83 83 89 92 93 92 93 96 101 101 105 117 122 132 149 155 167 182 180 178 176 172 172 168 158 156 178 186 185 167 154 156 153 146 141 140 148 151 145 137 134 129 124 120 112 104 98 98 99 98 98 100 101 100 98 96 98 101
66 66 68 71 78 85 88 91 93 96 97 96 94 93 91 88 88 90 89 88 88 86 84 83 82 81 84 91 98 102 111 122 143 182 189 187 192 197 190 174 161 153 166 178 185 176 161 159 158 154 150 144 153 162 156 146 141 136 131 127 119 112 109 107 105 103 99 98 98 99 102 100 95 94
65 65 67 69 75 81 84 84 85 85 87 89 89 89 90 92 93 91 87 85 83 81 79 77 75 73 74 74 75 76 74 76 81 96 141 174 191 195 183 169 154 136 146 171 186 181 165 161 161 156 149 142 148 157 160 157 151 144 139 134 123 115 116 116 115 112 106 102 99 98 100 99 92 89
66 66 67 69 74 80 82 82 82 83 84 84 83 85 91 94 93 89 86 83 81 77 75 73 70 68 70 71 70 70 69 69 71 71 75 92 117 144 159 162 150 137 143 168 188 187 173 166 164 159 149 143 146 152 159 164 162 154 147 140 129 121 121 123 124 122 116 110 106 104 105 106 103 98
72 70 68 68 71 76 78 79 80 81 83 84 84 86 89 89 89 88 84 81 80 79 75 71 68 65 67 69 69 68 67 67 70 72 73 78 85 93 100 103 113 127 140 161 182 190 181 170 167 166 156 148 147 152 158 163 166 164 158 150 140 132 128 128 129 129 129 126 121 117 118 118 113 107
76 75 72 70 70 71 73 74 74 73 74 78 81 83 84 86 86 84 81 79 79 78 74 71 69 67 66 66 63 62 64 66 70 74 77 79 80 81 83 85 91 102 115 137 164 188 187 173 169 170 161 151 148 152 157 161 164 165 163 161 157 147 138 136 136 139 142 140 136 134 131 126 121 118
77 77 76 74 72 71 72 72 70 68 67 68 70 71 72 73 73 71 72 73 72 69 65 65 67 67 66 65 64 66 74 78 74 71 73 75 74 73 75 76 76 81 84 94 120 168 190 182 176 172 163 156 152 151 153 157 162 164 166 168 170 167 157 150 150 159 158 149 145 145 138 130 127 124
78 77 76 74 74 73 72 71 70 68 66 65 64 64 62 61 60 59 60 61 61 59 55 54 56 56 54 53 56 61 70 73 67 60 56 57 58 56 56 58 60 63 67 76 109 151 184 191 186 177 163 155 150 150 151 154 159 164 164 163 166 169 169 170 177 180 173 164 155 151 144 135 126 118
76 75 75 75 75 74 73 72 70 69 67 65 64 62 61 60 59 59 59 59 57 54 50 46 43 38 33 33 35 42 47 50 56 62 59 56 59 57 61 83 86 90 96 101 120 149 166 177 179 172 160 150 147 150 155 155 155 155 153 153 154 151 158 176 181 167 163 162 153 147 146 140 127 113
74 73 72 71 70 69 68 67 66 65 65 64 63 62 61 60 59 60 60 60 57 53 53 55 50 42 44 51 54 55 52 44 44 62 83 96 111 119 124 118 108 107 112 110 110 128 147 156 160 157 152 149 149 150 147 141 140 140 138 139 141 135 139 155 153 145 149 151 142 139 143 142 135 125
70 67 65 63 62 62 61 60 60 60 60 59 58 58 56 55 55 55 53 52 52 52 54 58 59 60 63 65 64 65 60 50 44 42 38 196 168 142 130 125 116 110 111 111 108 114 128 139 145 146 144 144 146 147 140 129 127 131 132 133 135 132 135 147 148 145 147 142 132 131 137 141 140 138
67 65 64 62 60 60 59 59 58 56 55 55 53 52 51 50 49 48 45 44 45 48 52 55 58 62 63 58 51 49 50 48 45 39 25 274 208 185 151 136 130 121 116 118 119 119 123 130 135 137 137 135 133 136 138 132 124 123 127 130 132 132 134 140 143 142 142 137 130 129 133 137 140 144
68 66 65 63 62 62 62 61 58 55 53 52 50 49 49 48 46 44 41 37 36 41 46 47 48 54 57 56 49 45 46 48 49 49 34 360 274 204 170 150 145 138 128 126 128 128 130 134 132 127 125 123 119 117 123 127 123 118 119 123 127 128 131 134 133 129 129 129 127 127 130 138 149 159
69 66 65 65 65 66 65 63 59 55 52 50 49 48 47 46 45 43 40 37 35 37 40 40 41 43 40 37 33 31 33 37 41 56 71 27 338 214 180 169 171 169 152 142 139 138 138 141 139 132 123 118 115 109 108 118 120 111 112 124 132 132 131 132 128 123 120 119 118 121 124 126 131 143
70 68 67 67 67 67 67 64 60 57 54 52 50 48 46 45 44 42 40 38 38 38 36 36 41 39 32 29 27 21 17 19 28 56 92 89 44 199 188 184 191 195 179 162 156 153 151 153 157 152 140 125 112 110 116 120 118 101 97 125 138 138 135 133 129 124 119 110 105 110 113 107 102 113
66 65 64 64 64 62 61 59 57 56 54 51 50 49 48 47 46 44 44 43 42 41 39 37 40 37 30 29 32 32 35 39 44 67 90 92 87 123 164 174 178 188 187 178 175 177 176 175 175 166 150 136 132 147 138 129 123 110 98 121 140 144 146 141 133 129 124 112 103 105 104 94 90 103
62 61 59 58 55 52 49 48 50 52 52 50 48 47 46 46 45 43 44 45 44 43 41 38 39 39 33 33 44 66 79 82 83 88 91 88 92 111 129 135 137 145 157 166 176 188 191 190 189 179 165 160 166 166 154 139 127 120 113 116 130 140 145 143 136 134 132 122 116 120 120 110 103 109
58 57 55 52 50 46 46 47 48 49 50 48 47 45 44 44 43 40 40 42 44 44 44 43 42 40 39 50 78 94 95 95 93 91 94 99 105 113 119 118 119 122 125 133 150 174 190 197 202 202 195 184 172 160 146 134 129 130 129 127 129 132 136 137 139 143 147 141 136 140 141 135 132 134
56 55 51 50 50 48 48 50 49 46 45 44 43 42 41 41 40 40 39 39 42 43 44 46 47 46 52 79 105 105 101 102 100 94 96 108 123 134 136 130 125 121 118 120 132 145 151 166 183 186 180 168 158 149 139 135 140 145 142 140 142 143 141 144 150 159 167 169 163 159 160 157 150 143
54 52 49 49 51 49 47 47 45 39 36 35 34 35 37 36 36 38 39 39 41 40 40 46 52 57 64 79 92 94 92 94 99 102 102 106 130 150 152 144 133 126 123 129 141 146 138 136 149 156 157 158 159 156 148 146 151 156 157 157 162 167 169 172 174 177 188 193 182 175 180 182 174 154
51 48 48 48 49 45 39 36 34 31 28 26 26 30 34 35 36 40 41 40 40 38 36 42 50 57 64 73 78 81 83 84 87 94 95 95 114 141 155 154 148 144 141 143 149 152 148 148 157 163 162 165 170 170 163 158 157 161 164 166 171 179 184 184 179 179 191 198 193 186 177 164 154 146
48 44 43 43 43 38 33 33 33 30 27 25 23 26 33 37 39 42 43 40 39 36 34 38 45 50 58 68 69 68 71 73 76 83 87 87 94 110 133 151 157 160 162 162 161 159 153 149 152 158 166 178 187 186 176 169 167 167 168 168 171 176 182 184 181 178 172 176 185 192 188 168 145 133
44 40 36 35 33 28 28 35 41 40 37 33 22 16 22 29 32 33 33 33 34 33 31 34 39 41 48 61 67 63 60 60 66 73 76 75 78 86 97 117 141 159 174 180 174 161 153 153 155 154 158 173 186 186 181 179 180 179 178 178 178 181 185 185 180 175 162 160 167 178 187 189 182 169